This demonstration page uses our WeatherBlox Daily Observations layout. Learn more.

Left ArrowRight Arrow

44.8408, -93.29828

Hourly Observations for November 4, 2016

Temp ( °F °C ) Dew Point ( °F °C ) Humidity (%) Winds ( mph kmh ) Pressure ( in mb ) Visibility ( mi km ) Precip ( " mm )
12:53 am 00:53 Clear 46 7.8 39 3.9 77 77 E 3 6 30.36 1028 9 14 0.00 0.00
1:53 am 01:53 Clear 44 6.7 39 3.9 83 83 Calm 30.36 1028 10 16 0.00 0.00
2:53 am 02:53 Clear 43 6.1 38 3.3 82 82 Calm 30.37 1028 10 16 0.00 0.00
3:53 am 03:53 Clear 42 5.6 39 3.9 89 89 Calm 30.37 1029 10 16 0.00 0.00
4:53 am 04:53 Clear 42 5.6 38 3.3 85 85 SE 3 6 30.37 1028 10 16 0.00 0.00
5:53 am 05:53 Clear 42 5.6 38 3.3 85 85 Calm 30.38 1029 10 16 0.00 0.00
6:53 am 06:53 Clear 43 6.1 39 3.9 86 86 Calm 30.38 1029 9 14 0.00 0.00
7:53 am 07:53 Clear 42 5.6 37 2.8 82 82 SE 3 6 30.38 1029 9 14 0.00 0.00
8:53 am 08:53 Sunny 43 6.1 39 3.9 86 86 SSE 5 7 30.38 1029 10 16 0.00 0.00
9:53 am 09:53 Sunny 50 10 42 5.6 74 74 VRB 3 6 30.37 1029 10 16 0.00 0.00
10:53 am 10:53 Sunny 55 12.8 40 4.4 57 57 SW 8 13 30.36 1028 10 16 0.00 0.00
11:53 am 11:53 Sunny 60 15.6 41 5 50 50 SW 8 13 30.35 1028 10 16 0.00 0.00
12:53 pm 12:53 Sunny 63 17.2 41 5 45 45 SW 9 15 30.33 1027 10 16 0.00 0.00
1:53 pm 13:53 Mostly Sunny 66 18.9 42 5.6 42 42 WSW 8 13 30.31 1026 10 16 0.00 0.00
2:53 pm 14:53 Mostly Sunny 67 19.4 41 5 39 39 WSW 6 9 30.29 1026 10 16 0.00 0.00
3:53 pm 15:53 Sunny 68 20 40 4.4 36 36 SW 5 7 30.28 1025 10 16 0.00 0.00
4:53 pm 16:53 Sunny 68 20 39 3.9 35 35 WSW 6 9 30.27 1025 10 16 0.00 0.00
5:53 pm 17:53 Mostly Sunny 66 18.9 40 4.4 39 39 SSW 5 7 30.26 1025 10 16 0.00 0.00
6:53 pm 18:53 Mostly Clear 64 17.8 40 4.4 41 41 SSW 5 7 30.27 1025 10 16 0.00 0.00
7:53 pm 19:53 Mostly Clear 62 16.7 40 4.4 44 44 SSW 3 6 30.27 1025 10 16 0.00 0.00
8:53 pm 20:53 Mostly Clear 59 15 41 5 51 51 SW 5 7 30.26 1025 10 16 0.00 0.00
9:53 pm 21:53 Clear 54 12.2 41 5 62 62 Calm 30.26 1025 10 16 0.00 0.00
10:53 pm 22:53 Clear 53 11.7 40 4.4 61 61 Calm 30.26 1025 10 16 0.00 0.00
11:53 pm 23:53 Mostly Clear 50 10 40 4.4 68 68 Calm 30.25 1024 10 16 0.00 0.00

Powered by AerisWeather